Regional Weather Roundup
Issued by NWS

Home | Current Version | Previous Version | Text Only | Print | Product List | Glossary On
Versions: 1 2 3 4 5 6 7 8 9 10 11 12 13 14 15 16 17 18 19 20 21 22 23 24 25 26 27 28 29 30 31 32 33 34 35 36 37 38 39 40 41 42 43 44 45 46 47 48 49 50
000
ASUS43 KLOT 230510
RWRIL

ILLINOIS REGIONAL WEATHER ROUNDUP
NATIONAL WEATHER SERVICE CHICAGO/ROMEOVILLE IL
1200 AM CDT TUE SEP 23 2014

NOTE: "FAIR" INDICATES FEW OR NO CLOUDS BELOW 12,000 FEET WITH NO
SIGNIFICANT WEATHER AND/OR OBSTRUCTIONS TO VISIBILITY.

* THESE STATIONS ARE NOT UNDER NWS QUALITY CONTROL. THEY ALSO MAY NOT
  REPORT WEATHER SUCH AS PRECIPITATION OR FOG.

ILZ001-002-007-009-015-016-024-230600-
NORTHWEST ILLINOIS

CITY           SKY/WX    TMP DP  RH WIND       PRES   REMARKS
MOLINE         CLEAR     48  46  93 CALM      30.26S
STERLING*      CLEAR     45  41  87 SE3       30.26F
SAVANNA*       CLEAR     50  48  93 CALM      30.25F
$$

ILZ003-004-008-010-011-017-018-230600-
NORTH CENTRAL ILLINOIS

CITY           SKY/WX    TMP DP  RH WIND       PRES   REMARKS
ROCKFORD       CLEAR     50  45  83 S3        30.28F
FREEPORT*      CLEAR     50  44  81 CALM      30.27F
ROCHELLE*      CLEAR     44  43  94 CALM      30.27S
DE KALB*       CLEAR     50  43  76 SW5       30.27S
PERU*          CLEAR     52  48  85 CALM      30.28S
$$

ILZ005-006-012>014-019>023-230600-
NORTHEAST ILLINOIS

CITY           SKY/WX    TMP DP  RH WIND       PRES   REMARKS
CHICAGO-OHARE  CLEAR     54  45  71 S3        30.27S
CHICAGO-MIDWAY CLEAR     56  44  64 S6        30.28R
AURORA         CLEAR     47  42  83 CALM      30.27F
LANSING*       CLEAR     49  45  85 CALM      30.28S
JOLIET*        CLEAR     46  45  94 CALM      30.29S
WAUKEGAN       CLEAR     52  46  80 SW5       30.25S
DUPAGE AIRPORT CLEAR     50  46  86 S5        30.27S
KANKAKEE*      CLEAR     46  45  97 CALM      30.29S
WHEELING       CLEAR     52  46  80 CALM      30.28S
MORRIS*        CLEAR     50  47  90 CALM      30.27S
ROMEOVILLE*    CLEAR     47  46  93 S6        30.28S
NORTHERLY ISL    N/A     57  42  57 S5          N/A
$$

LMZ740>746-230600-
SOUTHERN LAKE MICHIGAN

STATION/POSITION SKY/WX   TEMP    WIND        PRES    VSBY  WAVE
                          AIR SEA DIR/SP/G                  HT/PER
                          (F)     (DEG/KT/KT) (MB)    (MI)  (FT/S)
SOUTHERN BUOY              61 62  210/ 14/ 16 1024.5S         2/ 3
WAUKEGAN HARBOR            57     240/  8/ 10   N/A
BURNHAM HARBOR             57     200/  4/  7   N/A
CALUMET HARBOR             56     190/  5/  7 1024.0R
MICHIGAN CITY 6N           57 63  160/ 10/ 12   N/A           1/ 2
ST. JOSEPH                 58 65  160/ 10/ 12   N/A           1/ 5
$$

ILZ025>027-034>036-040-047-049-050-058-095>099-230600-
WEST-CENTRAL ILLINOIS

CITY           SKY/WX    TMP DP  RH WIND       PRES   REMARKS
QUINCY         CLEAR     55  46  71 SE3       30.25F
GALESBURG*     CLEAR    N/A N/A N/A CALM      30.27S
MACOMB*        CLEAR     44  43  95 CALM      30.28F
JACKSONVILLE*    N/A     51  47  88 CALM      30.27F FOG
PITTSFIELD*    CLEAR     49  47  90 CALM      30.27F
$$

ILZ028>032-037-038-041>044-048-051>054-059>061-230600-
CENTRAL ILLINOIS

CITY           SKY/WX    TMP DP  RH WIND       PRES   REMARKS
PONTIAC        CLEAR     48  46  93 CALM      30.28S
BLOOMINGTON    CLEAR     53  43  69 E5        30.29F
DECATUR        CLEAR     48  44  86 NE3       30.28S
PEORIA         CLEAR     52  47  83 CALM      30.27F
LACON*         CLEAR     46  44  93 CALM      30.27F
LINCOLN*       CLEAR     50  46  87 CALM      30.26F
SPRINGFIELD    CLEAR     49  46  90 CALM      30.27F
TAYLORVILLE    CLEAR     46  45  93 CALM      30.27S
$$

ILZ033-039-045-046-055>057-062-063-230600-
EAST-CENTRAL ILLINOIS

CITY           SKY/WX    TMP DP  RH WIND       PRES   REMARKS
CHAMPAIGN      CLEAR     50  44  80 E7        30.28S
DANVILLE*      CLEAR     49  45  85 E3        30.26S
RANTOUL*       CLEAR     53  44  70 E3        30.29S
MATTOON        CLEAR     50  48  93 S3        30.27S
PARIS*         CLEAR     45  45  99 CALM      30.29S
$$

ILZ079-100>102-230600-
SOUTHWEST ILLINOIS

CITY           SKY/WX    TMP DP  RH WIND       PRES   REMARKS
ALTON          CLEAR     51  49  95 CALM      30.27S
BELLEVILLE     CLEAR     52  50  93 CALM      30.26S FOG
CAHOKIA*       CLEAR     51  50  96 CALM      30.26S
SPARTA*        CLEAR     50  48  93 CALM      30.27S FOG
$$

ILZ064>066-069>071-074>076-080>082-084>086-088>090-092>094-230600-
SOUTH-CENTRAL ILLINOIS

CITY           SKY/WX    TMP DP  RH WIND       PRES   REMARKS
CARBONDALE     FOG       48  46  93 CALM      30.26F VSB 3/4
CAIRO*         CLEAR     51  47  86 CALM      30.25S
EFFINGHAM*     CLEAR     48  46  90 CALM      30.28S
MARION         CLEAR     48  46  93 CALM      30.27S
MT. VERNON     CLEAR     46  43  87 CALM      30.28R
CENTRALIA*     CLEAR     47  46  93 CALM      30.27S
SALEM*         CLEAR     48  47  96 CALM      30.27S
METROPOLIS*    CLEAR     47  47 100 CALM      30.25S
$$

ILZ067-068-072-073-078-083-087-091-230600-
SOUTHEAST ILLINOIS

CITY           SKY/WX    TMP DP  RH WIND       PRES   REMARKS
LAWRENCEVILLE  CLEAR     49  47  93 CALM      30.28R
FLORA*         CLEAR     47  46  97 CALM      30.28S
FAIRFIELD*     CLEAR    N/A N/A N/A CALM      30.27S
HARRISBURG*    CLEAR     49  49 100 CALM      30.27F
ROBINSON*      CLEAR     47  46  99 CALM      30.29R
CARMI*         CLEAR     49  49  99 CALM      30.27S
$$

ABBREVIATIONS USED IN REMARKS
   TC - TEMPERATURE IN CELSIUS
  WCI - WIND CHILL INDEX
   HX - HEAT INDEX
  VSB - VISIBILITY
$$



USA.gov is the U.S. government's official web portal to all federal, state and local government web resources and services.